EHI
0 0 0 0 0 0 0 0 0 0 0 0 0 1 2 2 1 0 0 0 1 2 3 3 3 3 3 3 3 4 4 3 2 2 1 0 0 0 0 0 0 0 0 0
0 0 0 0 0 0 0 0 0 0 0 0 0 0 1 1 0 0 0 0 1 2 3 3 3 3 3 3 3 3 3 2 1 1 0 0 0 0 0 0 0 0 0 0
0 0 0 0 0 0 0 0 0 0 0 0 0 0 0 0 0 0 0 0 0 1 2 3 3 3 3 3 3 3 3 1 0 0 0 0 0 0 0 0 0 0 0 0
0 0 0 0 0 0 0 0 0 0 0 0 0 0 0 0 0 0 0 0 0 0 1 1 2 2 3 3 3 3 2 1 0 0 1 1 0 0 0 0 0 0 0 0
0 0 0 0 0 0 0 0 0 0 0 0 0 0 0 0 0 0 0 0 0 0 0 0 1 1 1 2 2 2 2 1 0 1 2 2 1 0 0 0 0 0 0 0
0 0 0 0 0 0 0 0 0 0 0 0 0 0 0 0 0 0 0 0 0 0 0 0 0 0 0 1 1 1 1 0 1 1 3 2 1 0 0 0 0 0 0 0
0 0 0 0 0 0 0 0 0 0 0 0 0 0 0 0 0 0 0 0 0 0 0 0 0 0 0 0 0 0 0 1 2 3 3 2 1 0 0 0 0 0 0 0
0 0 0 0 0 0 0 0 0 0 0 0 0 0 0 0 0 0 0 0 0 0 0 0 0 0 0 0 0 0 0 1 2 2 2 1 0 0 0 0 0 0 0 0
0 0 0 0 0 0 0 0 0 0 0 0 0 0 0 0 0 0 0 0 0 0 0 0 0 0 0 0 0 0 0 1 1 1 1 0 0 0 0 0 0 0 0 0
0 0 0 0 0 0 0 0 0 0 0 0 0 0 0 0 0 1 0 0 0 0 0 0 0 0 0 0 0 0 0 0 0 0 0 0 0 0 0 0 0 0 0 0
0 0 0 0 0 0 0 0 0 0 0 0 0 0 0 0 0 0 0 0 0 0 0 0 0 0 0 0 0 0 0 0 0 0 0 0 0 0 0 0 0 0 0 0
0 0 0 0 0 0 0 0 0 0 0 0 0 0 0 0 0 0 0 0 0 0 0 0 0 0 0 0 0 0 0 0 0 0 0 0 0 0 0 0 0 0 0 0
0 0 0 0 0 0 0 0 0 0 0 0 0 0 0 0 0 0 0 0 0 0 0 0 0 0 0 0 0 0 0 0 0 0 0 0 0 0 0 0 0 0 0 0
0 0 0 0 0 0 0 0 0 0 0 0 0 0 0 0 0 0 0 0 0 0 0 0 0 0 0 0 0 0 0 0 0 0 0 0 0 0 0 0 0 0 0 0
0 0 0 0 0 0 0 0 0 0 0 0 0 0 0 0 0 0 0 0 0 0 0 0 0 0 0 0 0 0 0 0 0 0 0 0 0 0 0 0 0 0 0 0
0 0 0 0 0 0 0 0 0 0 0 0 0 0 0 0 0 0 0 0 0 0 0 0 0 0 0 0 0 0 0 0 0 0 0 0 0 0 0 0 0 0 0 0
0 0 0 0 0 0 0 0 0 0 0 0 0 0 0 0 0 0 0 0 0 0 0 0 0 0 0 0 0 0 0 0 0 0 0 0 0 0 0 0 0 0 0 0
0 0 0 0 0 0 0 0 0 0 0 0 0 0 0 0 0 0 0 0 0 0 0 0 0 0 0 0 0 0 0 0 0 0 0 0 0 0 0 0 0 0 0 0
0 0 0 0 0 0 0 0 0 0 0 0 0 0 0 0 0 0 0 0 0 0 0 0 0 0 0 0 0 0 0 0 0 0 0 0 0 0 0 0 0 0 0 0
0 0 0 0 0 0 0 0 0 0 0 0 0 0 0 0 0 0 0 0 0 0 0 0 0 0 0 0 0 0 0 0 0 0 0 0 0 0 0 0 0 0 0 0
0 0 0 0 0 0 0 0 0 0 0 0 0 0 0 0 0 0 0 0 0 0 0 0 0 0 0 0 0 0 0 0 0 0 0 0 0 0 0 0 0 0 0 0
0 0 0 0 0 0 0 0 0 0 0 0 0 0 0 0 0 0 0 0 0 0 0 0 0 0 0 0 0 0 0 0 0 0 0 0 0 0 0 0 0 0 0 0
0 0 0 0 0 0 0 0 0 0 0 0 0 0 0 0 0 0 0 0 0 0 0 0 0 0 0 0 0 0 0 0 0 0 0 0 0 0 0 0 0 0 0 0
0 0 0 0 0 0 0 0 0 0 0 0 0 0 0 0 0 0 0 0 0 0 0 0 0 0 0 0 0 0 0 0 0 0 0 0 0 0 0 0 0 0 0 0
0 0 0 0 0 0 0 0 0 0 0 0 0 0 0 0 0 0 0 0 0 0 0 0 0 0 0 0 0 0 0 0 0 0 0 0 0 0 0 0 0 0 0 0
0 0 0 0 0 0 0 0 0 0 0 0 0 0 0 0 0 0 0 0 0 0 0 0 0 0 0 0 0 0 0 0 0 0 0 0 0 0 0 0 0 0 0 0
0 0 0 0 0 0 0 0 0 0 0 0 0 0 0 0 0 0 0 0 0 0 0 0 0 0 0 0 0 0 0 0 0 0 0 0 0 0 0 0 0 0 0 0
Wind_Speed
6 7 6 7 7 8 9 8 7 6 5 4 1 3 5 7 7 8 9 10 10 10 9 8 8 8 7 7 7 7 6 5 4 3 3 3 2 1 1 1 2 2 3 3
7 8 8 9 9 9 10 10 9 8 7 4 1 2 4 6 7 7 8 10 10 10 10 10 10 9 8 7 8 7 6 5 4 4 3 3 2 1 1 1 1 2 2 2
7 8 8 9 8 9 9 9 8 7 4 1 0 2 3 5 6 6 7 8 9 10 10 10 10 9 9 8 8 8 7 6 5 5 4 3 3 2 1 1 0 1 1 1
7 8 9 3 1 1 2 3 4 3 1 1 1 2 2 4 4 5 5 6 7 8 9 9 9 8 8 8 8 8 7 7 6 5 5 4 3 2 2 1 1 1 1 1
6 7 7 3 1 0 1 2 3 3 1 2 1 2 2 3 3 3 4 4 5 6 8 8 8 9 9 8 8 7 7 7 7 6 6 5 4 4 3 2 1 2 2 2
6 8 6 2 3 3 1 1 3 2 2 2 1 1 2 3 3 3 3 3 4 4 6 7 7 8 8 8 8 8 8 7 7 6 6 6 5 4 3 3 3 2 2 2
8 8 5 2 2 1 1 2 5 5 4 3 2 2 2 3 3 3 4 4 3 3 3 4 6 7 7 7 8 7 7 6 6 6 6 6 5 4 4 3 3 3 3 3
7 8 3 3 1 2 3 4 5 5 5 4 4 3 4 3 3 4 4 4 3 3 3 3 4 5 6 5 5 6 6 6 6 6 6 5 5 4 4 4 4 4 4 4
2 0 4 4 4 4 5 4 5 5 4 4 3 3 3 3 3 3 4 3 3 3 3 3 3 3 4 4 5 6 6 6 5 5 5 5 5 5 4 4 4 4 3 3
2 1 3 3 3 3 4 4 4 3 3 3 2 2 3 3 2 2 3 3 3 3 3 3 3 3 3 4 5 5 6 5 5 5 5 5 4 4 4 4 4 4 4 4
3 1 1 2 2 2 3 3 3 3 3 2 2 2 2 2 2 2 2 2 2 3 2 2 2 2 3 4 4 5 5 5 5 5 5 4 4 4 5 4 5 5 4 3
2 2 2 1 3 2 2 2 2 2 2 2 2 2 3 2 2 2 2 2 1 1 2 2 2 2 3 3 3 4 4 4 3 3 3 4 4 3 6 6 8 9 9 7
2 2 2 2 2 2 1 1 1 1 1 2 2 2 3 2 2 2 2 2 1 1 1 1 1 1 2 3 3 4 4 3 3 3 3 3 3 4 3 5 7 9 10 10
2 1 1 0 1 1 1 1 0 2 2 3 2 2 3 2 2 2 1 1 1 1 0 0 1 0 1 1 3 3 3 3 3 3 3 3 4 4 4 4 4 4 7 11
1 1 1 1 2 1 0 0 1 2 2 2 2 2 2 2 1 1 1 1 1 1 1 1 0 1 0 0 1 2 2 2 2 2 3 3 4 4 4 5 4 4 4 5
1 1 1 1 1 1 1 1 1 1 1 2 2 1 1 1 1 1 1 2 1 0 1 1 1 1 1 0 1 1 2 4 3 3 3 3 3 4 4 4 5 5 5 4
2 2 2 2 2 1 1 1 0 1 1 1 1 1 1 1 2 2 1 1 1 1 1 1 1 1 1 1 1 1 1 2 4 3 3 3 3 4 4 4 4 5 4 5
2 2 1 1 1 1 1 1 0 1 1 1 1 1 1 1 1 1 1 1 1 2 2 2 3 2 2 2 1 1 1 2 2 3 3 3 3 4 4 4 5 5 4 4
1 1 1 0 0 1 1 0 0 0 1 1 1 1 1 1 1 1 1 1 1 1 1 2 3 3 2 3 3 2 2 3 3 3 3 4 4 4 4 4 4 4 4 4
1 2 2 1 0 0 0 0 0 0 0 1 1 0 0 0 1 1 1 1 1 1 1 2 2 2 3 3 4 2 3 3 4 4 3 3 3 4 4 4 4 5 5 5
2 2 2 1 1 0 0 0 0 0 0 0 0 0 1 1 1 1 0 1 1 2 2 2 2 2 2 4 4 3 3 4 4 4 4 3 3 4 4 4 4 4 4 4
2 1 1 1 1 0 1 1 1 0 0 0 0 1 1 1 1 1 1 0 1 2 2 1 2 3 5 6 3 4 4 5 4 4 3 3 4 4 4 4 4 4 4 4
2 1 1 1 0 0 1 1 1 1 1 1 1 1 1 1 1 1 1 1 1 2 2 2 3 6 8 5 4 4 5 5 4 4 4 4 4 4 4 4 4 4 4 5
1 1 1 0 0 0 1 1 1 1 1 1 1 1 1 1 1 1 1 1 2 2 2 3 5 7 7 4 4 4 4 4 3 3 3 4 4 4 4 4 4 4 5 6
1 1 1 0 0 1 1 1 1 1 1 1 1 2 1 1 1 1 2 2 2 2 2 4 7 7 5 3 3 4 4 4 4 5 4 4 4 4 4 4 4 5 5 5
1 1 1 1 1 1 1 0 0 0 0 0 1 1 1 1 1 1 1 2 2 3 3 2 3 4 3 3 4 4 4 5 5 4 4 4 4 4 4 5 6 5 5 5
1 1 1 1 1 1 1 1 0 1 1 1 1 1 1 1 1 2 2 2 2 2 2 3 3 3 3 3 4 4 4 4 4 4 4 4 4 4 5 6 5 5 5 5
Wind_Direction
253 259 263 251 246 239 247 259 265 269 268 265 225 152 150 151 152 157 161 164 166 167 170 171 173 174 173 170 163 162 163 170 170 161 144 132 125 131 91 40 7 15 17 19
260 250 255 255 246 243 246 253 261 268 275 289 316 114 142 153 158 165 170 171 171 174 175 178 178 178 177 172 167 163 167 169 163 153 139 138 144 145 104 54 11 18 11 17
279 267 258 256 248 244 239 243 250 254 261 271 182 143 149 157 166 171 173 174 175 179 179 182 183 180 177 173 166 167 169 165 159 159 159 164 164 146 152 191 142 22 342 358
274 275 264 270 350 188 248 288 295 298 301 212 156 134 133 142 159 171 171 173 179 180 178 181 178 172 169 165 167 172 171 168 166 165 165 164 163 173 189 198 172 188 263 284
279 278 276 276 314 227 256 289 315 307 319 105 125 142 131 100 121 146 162 174 177 177 175 178 175 169 167 170 172 174 173 171 170 167 168 171 177 187 192 187 196 225 237 246
266 274 280 332 42 54 335 291 357 360 40 75 90 175 115 99 106 122 130 142 156 166 168 169 165 162 169 175 176 178 175 174 172 170 171 177 184 190 191 190 206 221 236 243
253 263 275 358 62 120 251 45 36 36 50 69 63 65 71 88 101 108 112 117 120 132 145 153 153 159 175 182 185 176 166 168 171 170 174 180 183 188 190 198 211 227 235 242
241 250 256 65 74 41 41 44 45 43 48 52 54 64 73 85 102 110 110 116 124 125 122 129 147 162 181 188 171 153 156 165 172 175 184 185 180 190 199 203 214 230 237 244
271 67 83 77 61 44 28 30 37 38 42 55 51 60 72 83 92 109 120 125 128 131 135 148 160 171 186 170 148 149 159 170 178 183 185 179 182 195 205 206 215 229 231 237
269 160 111 97 67 54 43 29 33 35 44 57 58 66 73 86 94 101 118 128 131 138 153 167 167 169 172 155 155 162 173 180 187 192 192 192 193 198 204 209 217 226 231 235
267 288 54 71 58 46 42 36 36 41 52 56 75 76 80 83 82 89 94 108 128 149 166 174 168 172 166 159 172 183 188 191 196 197 194 194 198 207 211 215 214 218 226 226
263 310 318 49 60 58 47 28 24 40 50 56 74 87 81 84 79 87 100 96 104 125 152 175 178 172 167 167 182 194 201 202 198 193 192 194 200 221 230 226 228 227 226 227
320 5 27 45 50 52 24 356 17 78 85 84 82 84 90 88 88 85 91 110 132 144 168 187 180 179 177 177 191 209 214 206 194 194 197 201 207 215 236 247 242 242 238 237
30 23 325 339 50 67 10 355 57 88 82 81 87 91 92 84 78 84 85 79 72 69 147 135 122 206 219 186 197 219 225 216 203 200 203 212 219 224 226 230 240 249 244 239
320 303 302 12 87 99 70 117 129 110 96 88 87 92 94 95 89 71 56 59 62 43 25 44 36 312 283 166 221 237 232 225 214 212 215 225 227 228 232 238 241 242 237 235
230 198 218 220 172 148 149 186 181 140 111 93 84 85 89 93 87 64 56 58 58 26 22 23 1 345 5 352 272 266 253 243 240 232 232 235 235 236 238 240 243 243 239 235
200 195 199 219 207 199 208 239 229 121 115 111 99 81 103 97 85 70 58 52 24 20 27 12 358 360 359 316 288 268 264 260 255 249 243 242 242 244 249 251 251 249 244 237
225 216 208 220 207 210 220 220 194 110 130 115 113 111 112 123 121 91 39 35 35 24 16 13 16 357 339 329 317 307 295 281 270 262 258 256 255 255 254 255 258 258 256 251
204 176 177 213 217 230 231 210 175 125 124 138 139 131 107 76 57 37 28 8 356 343 2 25 4 341 340 358 347 322 306 300 295 286 274 273 273 267 262 262 262 262 260 257
165 161 170 169 129 102 233 242 214 165 130 108 99 84 50 26 9 349 355 345 333 329 11 20 351 341 347 352 343 324 314 305 298 294 290 279 275 276 276 276 275 273 270 265
169 162 155 140 113 86 279 255 234 112 56 64 56 311 314 323 322 309 303 302 329 8 8 354 347 349 352 342 327 314 305 297 293 292 292 293 292 291 290 290 290 288 286 284
159 148 139 122 105 45 10 19 23 49 59 47 354 322 322 324 327 326 316 297 16 22 0 348 350 343 332 327 307 295 290 288 287 288 290 293 293 293 295 298 298 300 301 301
145 136 131 128 111 60 38 25 8 33 52 37 11 339 325 328 323 314 322 1 29 6 343 326 322 321 315 307 292 288 287 289 292 295 296 297 298 298 300 302 303 306 305 303
139 129 116 80 57 54 20 11 17 35 42 29 14 353 333 328 350 13 31 27 4 343 323 309 309 310 309 298 294 295 297 302 304 302 304 303 302 301 301 303 302 301 299 300
144 147 147 100 20 32 41 29 22 28 29 23 3 354 349 28 27 1 359 4 354 332 315 311 311 308 301 298 306 312 314 311 309 308 300 295 293 295 296 297 298 298 296 293
81 69 60 30 31 31 11 15 19 8 343 347 360 358 1 14 7 357 343 335 328 322 317 311 308 305 311 320 322 318 312 308 306 302 298 299 299 302 302 301 300 297 296 295
84 78 77 67 44 17 351 340 325 326 343 351 344 342 340 337 333 335 335 333 331 326 325 324 325 325 323 323 320 315 312 309 306 303 302 300 297 295 294 294 293 293 294 294